Weather History for YSRI - January, 2013

Change the Weather History Date:

Monday, January 7, 2013

  Actual Average (YSSY) Record (YSSY)
Temperature  
Mean Temperature 81 °F -  
Max Temperature 91 °F 85 °F 96 °F (2002)
Min Temperature 71 °F 64 °F 59 °F (2012)
Cooling Degree Days 16    
Growing Degree Days 31 (Base 50)    
Moisture  
Dew Point 64 °F    
Average Humidity 64    
Maximum Humidity 83    
Minimum Humidity 36    
Precipitation  
Precipitation 0.00 in 0.14 in - ()
Sea Level Pressure  
Sea Level Pressure 30.08 in    
Wind  
Wind Speed 4 mph ()    
Max Wind Speed 15 mph    
Max Gust Speed -    
Visibility 6.2 miles    
Events      
Averages and records for this station are not official NWS values.
T = Trace of Precipitation, MM = Missing Value Source: Averaged Metar Reports

Daily Weather History Graph

Daily Weather History Graph

Search for Another Location

Airport or City:

Trip Planner

Search our weather history database for the weather conditions in past years. The results will help you decide how hot, cold, wet, or windy it might be!

Date:

Astronomy

Jan. 07, 2013 Rise Set
Actual Time 5:54 AM AEDT 8:11 PM AEDT
Civil Twilight 5:26 AM AEDT 8:39 PM AEDT
Nautical Twilight 4:51 AM AEDT 9:14 PM AEDT
Astronomical Twilight 4:13 AM AEDT 9:52 PM AEDT
Moon 1:20 AM AEDT (1/7) 3:16 PM AEDT (1/7)
Length of Visible Light 15h 13m
Length of Day
14h 16m
Waning Crescent, 30% of the Moon is Illuminated
Jan 7
Waning Crescent
Jan 12
New
Jan 19
First Quarter
Jan 27
Full
Feb 4
Last Quarter

Hourly Weather History & Observations

Time (AEDT) Temp. Heat Index Dew Point Humidity Pressure Visibility Wind Dir Wind Speed Gust Speed Precip Events Conditions
12:00 AM 73.4 °F - 66.2 °F 78% 30.18 in 6.2 mi Calm Calm - N/A   Overcast
12:30 AM 71.6 °F - 66.2 °F 83% 30.18 in 6.2 mi Calm Calm - N/A   Overcast
1:00 AM 71.6 °F - 66.2 °F 83% 30.18 in 6.2 mi SSW 3.5 mph - N/A   Overcast
1:30 AM 71.6 °F - 66.2 °F 83% 30.18 in 6.2 mi SSW 4.6 mph - N/A   Overcast
2:00 AM 71.6 °F - 66.2 °F 83% 30.18 in 6.2 mi SSW 1.2 mph - N/A   Overcast
2:30 AM 73.4 °F - 68.0 °F 83% 30.18 in 6.2 mi Calm Calm - N/A   Overcast
3:00 AM 73.4 °F - 66.2 °F 78% 30.15 in 6.2 mi Calm Calm - N/A   Overcast
3:30 AM 73.4 °F - 66.2 °F 78% 30.15 in 6.2 mi SSE 2.3 mph - N/A   Overcast
4:00 AM 73.4 °F - 66.2 °F 78% 30.15 in 6.2 mi SSE 4.6 mph - N/A   Overcast
4:30 AM 73.4 °F - 66.2 °F 78% 30.15 in 6.2 mi South 1.2 mph - N/A   Overcast
5:00 AM 73.4 °F - 66.2 °F 78% 30.15 in 6.2 mi SE 3.5 mph - N/A   Overcast
5:30 AM 73.4 °F - 66.2 °F 78% 30.18 in 6.2 mi ESE 6.9 mph - N/A   Overcast
6:00 AM 71.6 °F - 66.2 °F 83% 30.18 in 6.2 mi ESE 4.6 mph - N/A   Overcast
6:30 AM 71.6 °F - 66.2 °F 83% 30.18 in 6.2 mi ESE 4.6 mph - N/A   Mostly Cloudy
7:00 AM 73.4 °F - 66.2 °F 78% 30.18 in 6.2 mi ESE 8.1 mph - N/A   Overcast
7:30 AM 73.4 °F - 64.4 °F 73% 30.18 in 6.2 mi ESE 4.6 mph - N/A   Overcast
8:00 AM 73.4 °F - 64.4 °F 73% 30.18 in 6.2 mi East 3.5 mph - N/A   Overcast
8:30 AM 73.4 °F - 66.2 °F 78% 30.18 in 6.2 mi East 2.3 mph - N/A   Overcast
9:00 AM 75.2 °F - 64.4 °F 69% 30.18 in 6.2 mi East 2.3 mph - N/A   Overcast
9:30 AM 77.0 °F - 64.4 °F 65% 30.18 in 6.2 mi ESE 3.5 mph - N/A   Overcast
10:00 AM 77.0 °F - 64.4 °F 65% 30.18 in 6.2 mi South 3.5 mph - N/A   Overcast
10:30 AM 77.0 °F - 64.4 °F 65% 30.15 in 6.2 mi SSE 3.5 mph - N/A   Overcast
11:00 AM 80.6 °F 82.3 °F 64.4 °F 58% 30.15 in 6.2 mi ESE 4.6 mph - N/A   Scattered Clouds
11:30 AM 82.4 °F 83.9 °F 64.4 °F 54% 30.15 in 6.2 mi East 6.9 mph - N/A   Scattered Clouds
12:00 PM 80.6 °F 81.8 °F 62.6 °F 54% 30.12 in 6.2 mi East 8.1 mph - N/A   Mostly Cloudy
12:30 PM 80.6 °F 81.5 °F 60.8 °F 51% 30.12 in 6.2 mi NNE 4.6 mph - N/A   Mostly Cloudy
1:00 PM 84.2 °F 84.4 °F 60.8 °F 45% 30.09 in 6.2 mi NE 4.6 mph - N/A   Scattered Clouds
1:30 PM 86.0 °F 86.1 °F 60.8 °F 43% 30.09 in 6.2 mi East 5.8 mph - N/A   Unknown
2:00 PM 87.8 °F 87.6 °F 60.8 °F 40% 30.06 in 6.2 mi SE 5.8 mph - N/A   Unknown
2:30 PM 87.8 °F 88.5 °F 62.6 °F 43% 30.04 in 6.2 mi East 8.1 mph - N/A   Unknown
3:00 PM 89.6 °F 89.5 °F 60.8 °F 38% 30.01 in 6.2 mi East 11.5 mph - N/A   Unknown
3:30 PM 91.4 °F 91.4 °F 60.8 °F 36% 30.01 in 6.2 mi East 9.2 mph - N/A   Unknown
4:00 PM 89.6 °F 89.5 °F 60.8 °F 38% 29.98 in 6.2 mi East 10.4 mph - N/A   Unknown
4:30 PM 91.4 °F 91.4 °F 60.8 °F 36% 29.98 in 6.2 mi ESE 9.2 mph - N/A   Unknown
5:00 PM 89.6 °F 91.1 °F 64.4 °F 43% 29.95 in 6.2 mi NE 13.8 mph - N/A   Unknown
5:30 PM 87.8 °F 90.4 °F 66.2 °F 49% 29.95 in 6.2 mi NE 13.8 mph - N/A   Unknown
6:00 PM 86.0 °F 87.3 °F 64.4 °F 48% 29.95 in 6.2 mi East 15.0 mph - N/A   Unknown
6:30 PM 84.2 °F 86.6 °F 66.2 °F 55% 29.95 in 6.2 mi ENE 12.7 mph - N/A   Unknown
7:00 PM 82.4 °F 83.9 °F 64.4 °F 54% 29.95 in 6.2 mi ENE 11.5 mph - N/A   Unknown
7:30 PM 80.6 °F 82.7 °F 66.2 °F 61% 29.95 in 6.2 mi ENE 11.5 mph - N/A   Unknown
8:00 PM 78.8 °F - 66.2 °F 65% 29.95 in 6.2 mi ENE 10.4 mph - N/A   Unknown
8:30 PM 77.0 °F - 64.4 °F 65% 29.95 in 6.2 mi ENE 9.2 mph - N/A   Unknown
9:00 PM 77.0 °F - 64.4 °F 65% 29.95 in 6.2 mi ENE 8.1 mph - N/A   Unknown
9:30 PM 75.2 °F - 62.6 °F 65% 29.95 in 6.2 mi ENE 9.2 mph - N/A   Unknown
10:00 PM 75.2 °F - 62.6 °F 65% 29.95 in 6.2 mi NE 9.2 mph - N/A   Unknown
10:30 PM 73.4 °F - 62.6 °F 69% 29.95 in 6.2 mi ENE 6.9 mph - N/A   Unknown
11:00 PM 73.4 °F - 62.6 °F 69% 29.95 in 6.2 mi ENE 4.6 mph - N/A   Unknown
11:30 PM 71.6 °F - 62.6 °F 73% 29.92 in 6.2 mi ENE 4.6 mph - N/A   Unknown